Theta_e
293 293 294 294 295 295 294 290 289 290 291 292 292 290 290 291 292 292 293 295 295 295 295 295 298 298 304 304 304 305 305 305 302 302 304 302 304 304 304 303 306 307 308 308 307 308 308 307 307 308 307 308 309 309
294 294 294 294 294 292 289 289 290 292 292 291 290 290 292 292 293 294 293 296 294 296 295 298 298 297 303 304 305 305 305 305 305 303 301 300 302 300 303 303 305 302 304 304 307 305 305 307 307 306 305 307 308 308
293 293 294 292 289 290 291 292 291 290 289 289 290 294 294 295 295 294 296 295 294 296 297 296 301 303 303 304 303 304 304 304 305 305 302 301 303 301 301 301 304 304 305 301 303 304 305 305 306 307 307 308 307 307
293 292 290 290 291 291 291 291 289 288 288 289 294 295 295 295 295 295 295 295 295 298 299 301 303 302 303 303 304 304 304 305 305 304 302 297 300 303 301 302 300 302 304 304 305 304 306 306 307 307 307 306 306 306
292 288 288 290 291 291 291 289 288 288 291 294 294 295 296 295 295 295 295 297 298 298 300 300 300 300 301 302 303 304 304 304 304 301 298 299 301 300 298 298 301 303 301 302 304 306 306 306 307 306 306 305 305 305
292 288 288 289 289 290 289 288 288 290 293 294 295 295 296 296 297 296 296 298 297 298 300 300 300 299 300 301 302 302 303 303 303 303 298 302 303 302 297 299 302 303 304 306 305 304 303 305 305 305 305 305 304 303
291 287 287 288 288 288 288 288 289 292 294 294 295 295 296 296 297 298 298 297 297 297 299 298 298 300 300 300 300 301 301 301 302 301 300 300 302 302 297 298 302 303 303 304 305 305 304 303 303 303 304 303 303 301
290 287 287 287 287 286 287 288 289 293 294 292 294 294 296 296 297 295 297 297 297 297 298 296 297 298 300 301 300 300 300 300 301 301 301 299 301 301 298 301 302 302 303 305 304 304 303 303 302 302 302 302 300 298
291 289 289 289 287 286 287 287 291 293 294 292 294 294 295 295 296 295 295 296 296 296 297 296 296 292 299 299 299 299 299 298 300 296 298 299 296 298 300 301 301 303 304 305 304 303 302 301 300 300 300 300 299 297
290 289 289 288 287 288 288 288 292 294 294 293 293 295 295 295 295 295 294 294 294 295 297 295 299 295 298 298 298 298 299 296 300 298 300 296 297 301 302 302 303 304 304 303 302 301 301 300 298 298 298 298 297 296
290 289 288 287 287 290 287 291 293 293 294 293 295 296 296 294 296 297 297 296 296 296 296 297 298 297 298 295 298 299 297 297 299 298 299 298 300 300 300 302 304 304 302 302 301 301 300 299 297 296 296 296 296 295
293 292 289 288 289 288 289 292 293 294 294 295 295 295 294 296 296 295 294 296 297 298 298 299 298 300 298 299 299 299 299 299 301 299 300 299 302 303 303 302 301 301 300 299 299 299 298 298 296 295 295 294 294 293
294 293 292 289 288 290 289 293 293 294 295 295 295 296 296 296 297 296 296 299 297 299 300 301 299 299 298 299 298 300 297 302 301 304 304 303 301 300 300 299 299 298 297 297 297 297 297 296 295 294 294 293 293 292
295 293 291 289 289 289 293 293 294 295 295 294 296 297 295 298 297 299 300 300 300 300 301 300 300 301 299 299 300 299 297 298 297 297 302 300 299 299 299 298 298 296 295 295 295 295 295 294 293 292 292 292 291 291
293 292 292 292 292 293 293 294 294 295 296 295 298 299 297 299 299 298 297 299 299 301 301 301 301 301 300 298 296 297 296 297 296 294 300 299 299 298 298 297 296 295 294 293 292 293 293 292 291 291 290 290 290 290
295 295 294 294 294 294 294 294 295 296 297 298 297 297 298 296 298 296 297 298 299 302 301 301 298 296 298 298 299 298 299 297 300 299 299 298 298 297 297 296 294 293 292 291 290 290 290 289 289 288 287 288 288 288
295 295 295 295 295 295 296 296 296 297 298 297 298 295 295 297 297 297 297 299 300 301 298 298 297 301 296 298 299 297 297 299 298 297 298 297 297 296 296 294 293 293 292 291 290 289 289 288 287 287 286 285 287 287
294 293 293 293 295 296 296 296 297 298 298 296 296 296 296 296 297 298 298 299 300 301 301 300 300 298 295 299 297 296 296 297 296 296 297 296 296 295 294 293 293 292 292 291 290 289 288 287 287 286 286 285 284 285
295 294 293 293 295 296 298 297 298 298 296 295 296 296 296 296 297 298 298 299 300 301 300 300 298 298 297 297 296 296 296 295 294 294 295 295 295 294 293 293 293 292 291 290 290 289 288 288 288 287 286 284 284 283
292 293 294 293 295 296 297 297 297 298 298 298 296 297 297 297 297 297 298 300 300 300 299 297 298 298 299 298 298 297 296 295 294 293 293 294 294 293 293 293 293 291 291 291 290 290 288 288 288 288 287 285 285 284
295 295 293 295 296 297 297 297 297 297 296 296 296 296 298 297 298 299 299 299 299 300 296 299 297 296 296 296 296 296 296 296 295 294 293 293 292 293 293 293 292 292 291 290 290 290 290 289 289 288 287 286 286 286
292 290 293 296 296 296 296 296 297 297 297 297 296 297 298 296 298 298 298 298 299 299 299 298 296 295 294 294 294 295 295 294 294 294 294 293 293 292 292 292 291 291 291 290 290 290 289 289 289 288 288 287 287 286
291 291 294 295 295 294 295 295 297 297 296 295 296 296 296 296 296 296 296 298 298 298 297 296 296 295 294 293 293 293 293 293 293 293 293 293 292 292 292 291 290 290 290 290 290 290 289 289 289 288 288 287 287 286
292 292 293 293 294 292 294 295 296 296 296 295 295 294 295 296 296 295 293 298 297 296 295 295 295 294 293 292 291 291 291 291 291 291 292 292 292 292 291 291 290 290 290 290 289 289 289 288 288 287 287 286 286 286
290 291 291 288 294 291 292 293 293 295 291 292 294 292 294 295 292 291 293 295 295 294 293 294 293 293 292 292 292 291 291 291 291 291 290 290 291 291 290 290 290 289 289 289 289 288 288 287 287 286 286 286 285 285
286 291 289 291 291 292 292 290 290 290 292 291 291 295 294 291 291 290 295 296 295 294 293 293 292 292 292 292 292 291 291 291 291 291 291 290 290 290 290 289 289 288 287 287 288 288 287 286 286 285 285 285 285 284
285 288 292 292 294 294 292 294 295 292 290 289 290 289 289 291 288 292 294 294 295 294 293 292 292 292 293 293 293 293 292 291 291 291 291 291 290 290 290 290 289 289 288 287 287 286 286 286 285 284 284 284 284 284
290 292 287 293 293 293 289 290 289 288 290 295 294 290 288 288 290 294 292 292 292 292 293 293 293 293 293 294 293 293 292 291 291 291 291 290 290 289 289 289 288 288 288 288 287 286 285 285 284 283 283 283 283 283
292 292 292 285 292 292 292 289 290 294 294 293 288 289 291 294 294 293 292 292 290 291 291 291 292 292 291 291 291 291 291 292 291 291 291 290 290 289 289 288 288 287 287 287 287 285 284 284 283 283 283 283 283 282
292 291 291 289 284 286 292 293 293 293 292 292 292 292 292 292 291 292 292 292 291 290 290 290 290 290 290 290 290 290 290 291 290 289 289 289 289 290 289 288 288 287 288 287 286 284 283 283 282 282 282 282 282 282
290 289 290 291 288 292 292 291 291 290 289 289 290 290 290 290 290 290 290 290 290 290 290 290 290 290 289 289 288 288 288 288 288 288 289 289 289 289 289 288 287 287 286 286 286 285 283 282 282 282 281 281 281 281
290 290 289 287 289 290 290 289 290 290 290 291 290 291 291 290 290 290 290 290 290 290 290 289 289 289 289 289 288 289 288 288 289 288 288 288 288 288 288 287 287 286 285 284 284 284 283 282 282 281 281 280 280 280
290 290 289 290 289 290 290 290 290 290 290 290 290 290 290 290 290 290 291 291 291 290 290 289 290 289 289 288 288 288 288 288 288 288 288 288 288 287 287 287 286 285 285 284 283 282 282 282 281 281 281 280 280 279
Wind_Speed
17 17 18 22 23 29 22 20 20 19 19 19 22 25 31 33 35 31 40 38 34 27 40 31 28 29 18 14 8 10 7 4 2 3 4 4 3 5 4 5 4 4 5 4 5 7 8 2 1 2 5 3 0 2
17 18 18 19 15 14 16 17 15 16 20 21 25 32 36 38 38 34 39 39 39 30 30 18 37 52 25 22 14 18 3 7 6 4 2 3 2 1 5 2 6 3 6 5 8 6 7 8 10 12 10 7 6 8
15 16 16 12 13 12 13 13 14 16 17 23 31 37 30 26 22 29 39 33 34 36 33 38 21 16 18 17 28 9 2 13 7 7 4 2 3 3 3 4 4 3 8 1 3 3 11 22 14 16 15 11 8 9
12 12 11 11 12 12 10 10 11 13 20 25 27 12 11 16 15 30 33 32 32 13 7 5 11 12 13 11 22 20 17 17 17 11 3 2 3 4 2 3 3 4 3 2 3 11 10 11 8 5 2 7 8 10
14 12 12 12 11 10 9 9 10 14 17 19 12 8 9 12 18 28 23 26 32 13 3 8 9 7 10 11 16 14 13 18 13 4 3 1 1 3 2 1 4 6 6 4 4 6 15 9 8 10 7 12 8 13
14 13 13 13 11 10 8 8 9 10 12 12 10 6 2 4 17 12 7 7 6 5 4 2 6 7 5 8 11 12 10 7 5 4 2 3 6 6 3 4 7 16 13 10 7 5 2 6 2 7 8 11 16 16
14 13 13 13 12 10 9 7 4 8 6 6 9 7 10 17 11 4 3 4 2 3 3 3 2 4 8 7 6 7 6 3 4 4 1 1 1 1 1 3 1 6 9 8 8 6 5 5 2 1 11 13 13 13
16 16 14 13 12 10 9 6 4 4 2 3 5 7 9 9 10 11 8 4 3 5 4 2 1 2 4 4 4 3 4 4 1 2 2 2 3 6 3 7 17 19 14 13 10 7 5 2 5 5 6 13 15 15
20 19 16 14 12 11 9 7 5 3 4 7 7 6 5 6 5 5 6 4 4 7 2 3 3 3 4 4 5 4 4 2 1 3 3 5 3 4 7 12 18 16 11 11 8 7 5 6 8 9 9 12 15 16
29 23 20 17 13 12 10 9 4 3 9 12 11 4 4 2 2 3 4 4 4 3 2 1 1 1 5 4 2 4 4 3 3 6 6 3 4 13 16 18 9 12 12 11 11 8 8 10 11 10 10 10 15 15
30 30 23 17 16 13 11 10 7 11 14 13 2 1 3 4 2 4 3 1 1 1 5 7 8 4 7 3 2 6 3 3 3 4 7 3 3 12 33 25 14 13 11 9 9 8 9 12 12 12 11 10 13 14
26 28 24 21 17 15 13 12 14 16 9 2 3 6 6 2 1 1 3 3 4 4 8 4 7 8 7 6 3 7 4 3 5 7 3 3 2 10 23 23 20 18 14 10 6 8 8 10 11 12 12 12 13 13
24 25 22 20 19 16 15 16 21 10 4 2 3 3 4 5 4 5 5 3 3 4 6 5 3 9 6 9 4 2 4 4 7 3 4 1 9 21 22 20 17 13 12 11 11 11 12 13 11 12 13 12 10 11
22 22 19 19 19 17 17 19 15 8 2 2 4 5 4 4 4 1 2 2 3 6 7 9 5 4 8 5 3 3 3 2 1 0 1 2 14 15 14 15 14 12 10 11 12 13 13 13 12 10 9 10 10 12
21 17 14 12 12 13 19 21 15 13 6 5 4 1 4 1 1 3 3 5 4 5 9 4 3 8 2 2 1 2 3 2 4 3 1 10 12 13 15 14 13 13 12 12 13 13 13 13 13 12 11 10 9 12
16 13 7 8 15 17 21 17 14 10 4 3 3 4 9 3 1 4 4 4 3 5 2 4 1 3 1 4 2 3 3 2 1 2 10 15 15 16 16 15 14 12 11 12 13 14 14 14 13 13 12 11 10 11
9 7 6 6 8 17 13 11 5 4 3 3 1 2 4 7 2 3 3 5 5 6 1 1 2 1 1 1 2 2 2 1 8 8 8 11 17 17 14 15 14 13 13 13 14 14 14 14 14 14 12 10 11 10
7 7 2 4 9 9 6 6 4 3 3 2 2 1 4 4 5 4 5 5 4 4 7 0 1 2 2 1 1 2 3 10 9 7 9 13 16 14 15 15 14 14 14 14 14 15 15 14 13 13 11 11 11 10
4 5 2 5 8 5 2 3 4 3 2 3 5 5 4 5 4 4 6 7 7 6 3 1 1 1 1 1 2 5 12 10 8 7 9 12 14 16 15 15 14 15 14 15 14 15 14 11 9 10 11 11 12 12
4 6 5 4 12 4 3 3 3 4 2 1 3 4 4 4 5 6 7 7 6 3 1 2 1 1 2 4 3 5 8 11 14 12 9 12 15 15 14 16 16 14 12 11 10 9 11 12 9 9 8 13 10 11
2 3 3 6 7 8 4 3 4 2 2 3 3 5 4 4 5 4 5 4 3 3 1 3 6 8 6 7 5 4 6 8 12 11 17 14 13 14 13 12 12 13 12 12 13 12 10 13 11 11 10 11 10 7
5 5 5 5 4 4 4 5 4 2 3 2 2 4 4 2 3 3 2 4 4 3 6 7 6 6 8 7 6 8 8 9 10 10 10 13 17 16 16 15 16 14 13 13 14 13 13 12 12 12 12 12 12 12
6 2 2 5 4 4 4 4 3 3 2 2 2 2 2 2 3 2 3 5 4 7 9 8 5 5 9 7 6 7 8 9 10 10 11 11 11 14 14 13 14 14 14 13 13 13 12 14 14 13 12 14 15 16
7 3 3 3 5 3 2 2 3 3 1 1 2 2 1 3 3 2 3 3 7 9 9 12 11 10 7 6 7 8 9 9 11 11 12 12 13 14 11 11 12 11 12 12 12 13 13 14 14 14 13 15 17 18
3 4 3 4 4 2 2 2 1 1 3 3 2 2 1 3 0 2 3 2 9 9 10 12 13 13 11 9 7 7 10 10 11 12 12 13 12 12 12 11 12 12 11 13 14 14 14 14 14 13 14 16 17 18
3 5 6 5 4 3 4 3 4 4 2 2 3 2 2 1 1 5 1 1 4 9 10 14 17 14 12 11 12 13 12 11 10 10 10 13 14 13 13 14 13 12 12 14 15 15 14 14 13 14 16 15 16 17
3 4 5 5 3 3 2 2 1 2 2 4 2 2 2 3 5 2 2 1 3 4 3 9 14 14 14 14 15 14 12 12 13 10 10 10 9 10 10 12 13 10 8 8 15 15 14 14 13 14 16 15 16 16
7 3 4 4 4 4 2 1 4 4 3 5 4 4 4 5 3 3 2 2 4 5 5 8 11 11 10 10 11 11 12 14 13 12 13 13 12 11 11 10 9 9 10 9 10 12 13 12 12 13 15 15 14 14
3 4 0 1 2 4 4 4 3 3 4 5 3 2 2 1 1 4 9 11 8 8 9 12 13 14 14 14 14 14 15 17 19 18 19 18 17 15 14 12 11 12 11 8 9 10 11 11 11 13 14 14 12 13
2 5 3 4 4 4 4 4 1 2 4 4 5 9 13 16 15 14 15 15 13 11 13 14 15 14 16 18 16 17 19 19 19 19 20 19 17 11 11 11 15 14 12 10 10 12 12 11 12 14 14 14 13 14
1 2 3 4 3 3 5 6 8 10 10 10 13 14 18 16 21 22 22 22 21 18 17 18 18 18 18 18 18 21 20 19 17 19 18 15 15 15 13 12 13 14 12 12 11 12 13 14 15 15 14 14 15 16
7 6 2 2 1 3 4 3 3 6 5 9 12 12 12 7 6 13 18 15 16 19 21 20 19 19 16 15 15 17 16 15 18 21 19 18 17 16 15 13 13 14 13 11 12 14 15 16 17 16 15 15 16 16
4 3 4 4 3 3 6 5 3 3 6 4 6 14 14 10 6 7 9 9 12 14 16 18 18 17 14 14 17 15 15 12 10 13 14 16 17 16 16 15 15 15 15 14 13 15 16 18 17 17 16 14 14 15
Wind_Direction
230 234 231 243 243 252 228 257 261 260 264 267 269 272 274 267 260 256 247 237 225 239 258 254 257 249 182 178 189 168 187 164 78 107 137 188 180 213 176 245 121 150 174 203 225 220 248 9 72 216 217 13 357 53
232 230 240 249 225 220 241 250 254 264 269 278 279 282 276 269 259 241 230 229 226 228 250 257 266 250 232 191 164 168 170 158 160 118 166 129 200 144 182 241 188 233 171 184 184 209 232 232 207 266 231 201 198 186
226 234 222 197 217 222 224 239 257 270 283 284 288 289 268 256 225 213 211 215 219 230 257 263 245 179 200 227 202 164 179 183 159 130 141 167 161 127 180 235 210 345 42 310 32 249 246 262 282 302 228 205 181 203
219 201 203 205 213 219 234 252 269 282 286 295 301 265 225 215 214 192 202 211 217 203 235 190 157 133 176 144 146 149 149 138 148 143 111 134 142 123 205 204 151 196 95 130 266 312 317 328 317 16 172 163 187 185
200 204 205 207 216 228 238 250 275 293 301 311 313 213 233 205 213 217 219 213 206 240 246 144 140 148 146 140 128 125 134 133 135 90 71 200 205 95 260 87 227 184 188 167 229 282 260 251 295 284 220 175 203 204
209 210 209 213 218 226 230 254 285 307 314 340 102 70 329 56 140 151 197 188 152 298 184 116 108 177 159 140 137 132 141 152 145 110 149 212 200 149 182 217 211 212 217 220 205 211 270 254 260 295 245 220 196 207
214 216 213 214 220 226 233 248 274 299 350 12 122 85 70 76 112 115 117 152 186 7 57 53 49 115 173 166 146 141 153 106 100 117 165 280 331 186 234 229 275 255 264 241 219 193 199 221 245 297 151 167 182 184
218 218 213 213 217 223 232 240 247 307 353 221 116 131 109 79 70 78 96 127 109 60 62 82 88 56 127 113 102 119 92 88 154 195 227 199 234 192 238 240 240 255 261 251 192 201 210 293 185 176 162 169 159 163
217 215 212 219 223 221 211 210 221 277 177 169 138 130 84 48 31 51 52 81 35 44 38 14 132 213 131 64 83 73 108 111 243 217 220 177 236 213 215 233 251 229 213 186 184 175 200 165 163 166 165 170 179 170
208 210 213 219 213 199 200 193 194 162 155 144 130 31 26 27 76 62 24 17 9 26 48 244 241 114 142 127 97 120 175 212 190 231 198 187 242 236 238 237 248 192 185 172 158 163 169 171 173 171 178 187 193 186
196 201 205 202 195 192 187 176 164 146 153 156 165 155 135 152 23 9 356 359 180 262 226 225 197 144 197 119 132 190 193 215 224 218 181 225 260 221 229 231 199 172 156 154 172 192 203 194 182 177 179 185 187 189
170 178 186 190 188 182 180 169 148 148 150 200 196 136 158 203 245 192 213 222 213 229 182 191 181 159 173 156 171 194 213 192 242 145 152 241 274 116 147 140 141 146 152 141 161 174 162 174 184 179 178 172 180 186
154 163 171 177 180 180 181 169 160 157 147 184 209 165 188 193 223 211 214 212 217 187 198 147 143 144 145 184 195 226 185 234 130 230 171 55 104 114 118 127 128 139 146 152 148 156 165 157 163 179 178 184 193 192
134 148 157 164 170 166 164 164 167 169 298 252 213 208 201 182 233 201 351 351 341 268 149 156 121 186 188 168 202 179 240 113 267 11 132 163 131 131 132 146 149 148 159 158 157 161 164 163 160 167 181 183 189 194
118 129 141 158 171 175 173 179 198 198 220 241 235 261 218 218 214 324 293 288 301 313 134 200 185 157 188 117 191 126 33 227 190 188 115 135 162 168 155 163 166 164 163 158 154 156 160 160 160 164 173 183 189 191
93 98 119 162 173 173 183 201 221 237 245 241 243 302 348 313 125 338 322 308 351 9 228 277 167 67 259 142 117 212 166 202 122 74 137 159 167 170 169 169 169 167 155 148 147 150 154 159 165 165 168 178 182 192
134 110 131 140 177 202 206 234 255 233 243 269 194 251 281 283 338 298 307 334 345 335 252 82 71 189 48 12 147 38 96 95 123 129 166 182 172 166 173 169 167 159 154 154 151 151 153 157 161 159 163 173 176 182
99 80 351 277 186 171 209 224 263 252 218 279 321 312 303 279 294 315 323 331 334 340 316 267 135 72 164 185 38 136 129 123 139 147 166 176 174 178 169 166 165 163 160 158 158 158 159 161 157 161 170 172 173 180
206 232 296 223 221 241 253 243 236 255 195 283 266 267 266 284 282 291 286 287 297 270 269 288 88 188 144 102 133 137 169 167 164 165 162 177 181 170 169 168 166 165 166 165 165 167 168 161 168 179 183 180 186 187
231 218 209 248 213 245 245 235 238 268 202 214 252 259 267 268 278 275 264 289 305 281 272 198 144 109 104 133 144 182 174 179 164 158 153 171 181 184 179 175 171 171 169 167 166 162 161 165 189 192 205 193 193 198
269 268 255 205 225 236 258 239 243 247 261 247 274 251 259 231 242 246 272 269 252 227 173 126 156 158 176 166 153 165 190 194 194 194 183 180 186 189 185 184 186 176 181 184 188 193 193 194 199 204 202 202 201 214
284 291 205 224 244 235 254 234 259 220 222 220 204 233 248 228 235 250 258 232 240 179 166 170 179 202 183 187 191 185 198 202 206 209 200 187 182 183 184 188 187 197 201 202 205 206 207 211 211 214 214 211 211 217
323 278 223 223 229 223 254 216 236 222 180 245 208 248 202 194 225 274 261 239 213 202 200 187 184 188 187 193 178 186 192 193 197 199 200 194 197 199 199 201 204 204 205 208 211 215 216 214 214 215 221 215 214 215
313 243 233 231 215 239 238 260 244 204 252 242 215 241 210 153 166 240 256 242 188 199 215 183 180 177 173 174 184 190 187 189 190 191 201 199 192 196 202 200 202 207 216 217 216 215 216 216 218 223 226 209 210 214
247 241 205 252 211 168 232 234 282 201 199 216 24 317 194 163 199 251 238 181 179 189 188 187 191 194 197 200 201 193 186 191 196 199 199 196 199 198 203 213 212 218 217 212 214 215 217 220 224 228 214 214 213 216
200 211 176 207 204 188 206 198 194 212 193 160 241 112 42 57 251 249 261 123 204 208 216 215 206 202 209 210 207 204 201 195 198 194 197 197 201 203 203 207 211 220 219 213 218 221 226 223 223 214 210 216 216 218
240 237 217 222 263 259 349 348 319 112 168 200 210 146 134 221 241 231 147 223 202 237 229 216 204 206 222 226 224 223 200 200 203 207 197 199 205 211 224 226 225 232 235 233 212 217 218 221 221 212 211 215 214 220
232 249 164 197 239 230 186 260 177 214 227 209 144 176 192 210 231 158 210 208 229 229 208 199 208 225 220 208 198 205 206 201 204 214 209 196 198 207 211 216 217 219 215 228 211 208 209 213 215 208 206 208 210 216
227 164 111 286 260 243 223 202 225 218 150 162 156 245 257 312 220 283 307 310 305 208 218 216 215 217 225 233 232 228 222 216 205 202 201 200 209 217 228 222 210 208 222 221 206 199 203 205 201 196 196 202 206 205
160 160 235 176 170 230 219 220 118 181 189 221 234 259 274 279 287 290 281 274 271 247 228 228 226 227 227 227 229 227 227 230 226 220 219 226 233 237 228 227 214 211 213 212 199 190 188 184 180 182 189 194 195 193
213 213 253 253 243 225 216 245 271 280 271 262 255 261 267 278 286 280 272 268 266 250 235 230 231 232 235 234 229 224 227 227 221 215 220 226 228 228 227 227 208 201 203 200 197 192 185 180 177 181 185 189 187 195
189 213 238 267 280 215 271 253 245 239 251 239 250 253 262 255 251 281 271 262 247 237 235 234 232 234 235 235 231 228 233 233 221 215 218 220 219 220 214 218 204 199 197 198 191 188 185 183 182 186 188 188 186 191
213 234 244 281 265 239 206 197 248 263 241 246 252 250 253 251 246 259 267 261 260 252 242 242 239 231 231 233 223 222 221 221 207 207 218 227 228 224 216 210 201 197 194 195 194 190 188 185 187 192 195 193 192 189